Regional Weather Roundup
Issued by NWS

Home | Current Version | Previous Version | Text Only | Print | Product List | Glossary Off
Versions: 1 2 3 4 5 6 7 8 9 10 11 12 13 14 15 16 17 18 19 20 21 22 23 24 25 26 27 28 29 30 31 32 33 34 35 36 37 38 39 40 41 42 43 44 45 46 47 48 49 50

120
ASUS43 KLSX 280807
RWRMO

WEATHER SUMMARY FOR MISSOURI
NATIONAL WEATHER SERVICE SPRINGFIELD MO
300 AM CDT WED SEP 28 2016

NOTE: "FAIR" INDICATES FEW OR NO CLOUDS BELOW 12,000 FEET WITH NO
       SIGNIFICANT WEATHER AND/OR OBSTRUCTIONS TO VISIBILITY.
       CURRENT SKY AND/OR WEATHER CONDITIONS ARE NOT AVAILABLE FOR
       CHILLICOTHE AND FARMINGTON.

MOZ001>031-035>038-043-044-053-054-280900-
...NORTHERN AND WESTERN MISSOURI...

CITY           SKY/WX    TMP DP  RH WIND       PRES   REMARKS
KANSAS CTY INT CLEAR     60  53  77 W7        29.87R
KANSAS C DTWN  CLEAR     61  56  83 CALM      29.86S
LEE`S SUMMIT   CLEAR     60  55  83 W7        29.87S
ST JOSEPH      CLEAR     53  51  93 N3        29.87S
CHILLICOTHE      N/A     55  51  86 N6        29.86S
KIRKSVILLE     PTCLDY    57  47  69 N8        29.84R

$$
MOZ066>068-077>081-088>096-101>105-280900-
...SOUTHWEST MISSOURI...

CITY           SKY/WX    TMP DP  RH WIND       PRES   REMARKS
SPRINGFIELD    CLEAR     61  48  62 SW9       29.92F
JOPLIN         CLEAR     65  50  58 SW16G22   29.93F
BRANSON        PTCLDY    63  46  55 SW8       29.96F

$$
MOZ032>034-039>042-045>050-055>058-069>072-280900-
...CENTRAL MISSOURI...

CITY           SKY/WX    TMP DP  RH WIND       PRES   REMARKS
COLUMBIA       CLEAR     61  55  81 W10       29.83F
JEFFERSON CITY CLOUDY    60  55  83 CALM      29.83F
ROLLA          CLEAR     57  51  80 SW12      29.85F
SEDALIA        PTCLDY    63  54  72 W7        29.86S
WHITEMAN AFB   CLEAR     60  57  89 W5        29.84S
OSAGE BEACH    CLEAR     63  51  65 SW7       29.87F

$$
MOZ051-052-059>065-280900-
...EAST CENTRAL MISSOURI...

CITY           SKY/WX    TMP DP  RH WIND       PRES   REMARKS
ST LOUIS INTL  PTCLDY    64  53  67 SW9       29.80F
SPIRIT OF STL  CLEAR     63  54  72 SW9       29.79F
ST CHARLES     CLEAR     55  53  93 CALM      29.79F

$$
MOZ072>076-082>087-097>100-106>115-280900-
...SOUTH CENTRAL AND SOUTHEAST MISSOURI...

CITY           SKY/WX    TMP DP  RH WIND       PRES   REMARKS
CAPE GIRARDEAU CLEAR     57  50  77 SW6       29.87F
FARMINGTON     CLEAR     65  49  56 W7        29.86F
POPLAR BLUFF   CLEAR     57  53  86 SW5       29.89F
WEST PLAINS    CLEAR     57  49  74 SW6       29.94F

$$



USA.gov is the U.S. government's official web portal to all federal, state and local government web resources and services.